Regional Weather Roundup
Issued by NWS Mobile, AL

Home | Current Version | Previous Version | Text Only | Print | Product List | Glossary On
Versions: 1 2 3 4 5 6 7 8 9 10 11 12 13 14 15 16 17 18 19 20 21 22 23 24 25 26 27 28 29 30 31 32 33 34 35 36 37 38 39 40 41 42 43 44 45 46 47 48 49 50
000
ASUS44 KMOB 212110
RWRMOB
REGIONAL WEATHER ROUNDUP
NATIONAL WEATHER SERVICE MOBILE AL
400 PM CDT THU AUG 21 2014

NOTE: "FAIR" INDICATES FEW OR NO CLOUDS BELOW 12,000 FEET WITH NO
      SIGNIFICANT WEATHER AND/OR OBSTRUCTIONS TO VISIBILITY.

  * THESE STATIONS ARE PART OF THE UNIVERSITY OF SOUTH ALABAMA
    MESONET AND ARE NOT UNDER NWS OR FAA QUALITY CONTROL.

ALZ061>064-212200-
COASTAL ALABAMA

CITY           SKY/WX    TMP DP  RH WIND       PRES   REMARKS
MOBILE REG APT MOSUNNY   90  75  61 SE9       30.08F HX 100
BROOKLEY FIELD MOSUNNY   90  80  72 S7        30.08F HX 107
USA CAMPUS*      N/A     91  75  59 SE7       30.05F HX 102
DOG RIVER*     NOT AVBL


CITY           SKY/WX    TMP DP  RH WIND       PRES   REMARKS
MOUNT VERNON*  NOT AVBL
SARALAND*      NOT AVBL
BAY MINETTE*   NOT AVBL
LOXLEY*          N/A     91  68  46 NW2       30.06F HX  95
ROBERTSDALE*   NOT AVBL
FAIRHOPE*        N/A     88  77  70 SW9       30.06F HX 100
ELBERTA*         N/A     90  79  70 S9        30.06F HX 105
FOLEY*         NOT AVBL
GRAND BAY*       N/A     91  77  62 S5        30.05F HX 105
DAUPHIN ISLND* NOT AVBL
BON SCOUR NWR* NOT AVBL
GULF SHORES    SUNNY     91  76  62 SW10      30.07F HX 102

$$

ALZ051>060-212200-
INTERIOR SOUTHWEST AND SOUTH CENTRAL ALABAMA

CITY           SKY/WX    TMP DP  RH WIND       PRES   REMARKS
GREENVILLE     SUNNY     95  71  45 CALM      30.07F HX 102
EVERGREEN      LGT RAIN  86  74  67 W6        30.08F
CASTLEBERRY*   NOT AVBL
ATMORE*          N/A     93  70  46 CALM      30.08F HX  99
DIXIE*         NOT AVBL
ANDALUSIA/OPP  SUNNY     95  71  45 N7        30.07F HX 102
ANDALUSIA*     NOT AVBL
FLORALA APT    MOSUNNY   95  70  44 VRB3      30.08F HX 101
FLORALA*         N/A     93  66  40 CALM      30.02F HX  96

$$

FLZ001>006-212200-
WESTERN FLORIDA PANHANDLE

CITY           SKY/WX    TMP DP  RH WIND       PRES   REMARKS
PENSACOLA      SUNNY     87  77  72 S9        30.07F HX  99
NAS PENSACOLA  MOSUNNY   91  76  61 SW13      30.06F HX 103
MILTON         MOSUNNY   94  71  47 W7        30.06F HX 101
WHTNG S FIELD  MOSUNNY   95  71  45 W5        30.06F HX 102


CITY           SKY/WX    TMP DP  RH WIND       PRES   REMARKS
WALNUT HILL*   NOT AVBL
JAY*           NOT AVBL
DUKE FIELD     MOSUNNY   92  75  57 SW12      30.05F HX 104
CRESTVIEW      MOSUNNY   96  71  44 VRB5      30.07F HX 103
VALPARAISO     PTSUNNY   89  76  63 W3        30.06F HX 100
DESTIN         MOSUNNY   90  78  68 SW9       30.07F HX 104

$$

MSZ076-079-212200-
INTERIOR SOUTHEAST MISSISSIPPI

CITY           SKY/WX    TMP DP  RH WIND       PRES   REMARKS
LEAKESVILLE*     N/A     93  64  38 W8          N/A  HX  95
AGRICOLA*      NOT AVBL

$$

MARINE OBSERVATIONS

STATION/POSITION TIME  TEMP    WIND        PRES    WAVE
                       AIR SEA DIR/SP/G            HT/PER
                 (UTC) (F)     (DEG/KT/KT) (MB)    (FT/S)
PASCAGOULA       2100   89     200/  6/ 10 1018.3F
PETIT BOIS ISLND 2100   87     180/  8/  9 1018.9F
GRAND BAY        2000   88     200/  8     1020.0F
KATRINA CUT      2000   86     200/  6     1019.6F
CEDAR POINT      2000   86     200/  6     1019.3F
E DAUPHIN ISLAND 2000   86     180/  6/  7 1019.2F
MIDDLE BAY LIGHT 2000   86     200/  8     1018.6F
USCG MOBILE BAY  2100   88 86  170/  6/  9 1017.3F
STATE DOCKS      2100   90 88              1018.1F
MEAHER PARK      2000   88     200/  9     1017.6F
WEEKS BAY        2000   93                   N/A
FORT MORGAN      2100   87     220/  8/  9 1018.2F
12 S ORANGE BCH  2100   86 87  210/  8/  8 1018.7F   1/ 6
PENSACOLA BAY    2100   89 90  170/  5/  7 1018.6F
64 S DAUPHIN ISL 2044   86 92  100/  4/  6 1019.3F
67 S FORT MORGAN 2000   87                 1019.0F

$$

SELECTED LOCATIONS ACROSS THE REGION

CITY           SKY/WX    TMP DP  RH WIND       PRES   REMARKS
NEW ORLEANS    TSTM      80  70  71 SE15G31   30.09S
GULFPORT       MOSUNNY   92  72  51 VRB6      30.07F HX  99
PASCAGOULA AP  SUNNY     91  74  57 S8        30.07F HX 100
PASCAGOULA*      N/A     90  75  62 S6        30.06F HX 100
HATTIESBURG    MOSUNNY   94  69  44 MISG      30.07F HX  99
LAUREL         MOSUNNY   95  70  43 SW3       30.09F HX 101
MERIDIAN       MOSUNNY   93  69  45 N5        30.07F HX  98
JACKSON        PTSUNNY   95  70  44 W5        30.07F HX 101
MONTGOMERY     SUNNY     96  69  41 SW6       30.06F HX 102
TROY           MOSUNNY   94  72  48 NW6       30.08F HX 102
KINSTON*       NOT AVBL
GENEVA*          N/A     95  70  43 W2        30.06F HX 101
ASHFORD*       NOT AVBL
DOTHAN         MOSUNNY   95  72  47 W5        30.10F HX 103
PANAMA CITY    PTSUNNY   80  72  76 SW7       30.05F

$$



USA.gov is the U.S. government's official web portal to all federal, state and local government web resources and services.